Regional Weather Roundup
Issued by NWS Northern Indiana

Home | Current Version | Previous Version | Text Only | Print | Product List | Glossary Off
Versions: 1 2 3 4 5 6 7 8 9 10 11 12 13 14 15 16 17 18 19 20 21 22 23 24 25 26 27 28 29 30 31 32 33 34 35 36 37 38 39 40 41 42 43 44 45 46 47 48 49 50

000
ASUS43 KIWX 212310
RWRIWX

KIWX WEATHER ROUNDUP
NATIONAL WEATHER SERVICE NORTHERN INDIANA
700 PM EDT TUE OCT 21 2014

NOTE: "FAIR" INDICATES FEW OR NO CLOUDS BELOW 12,000 FEET WITH NO
SIGNIFICANT WEATHER AND/OR OBSTRUCTIONS TO VISIBILITY.

* THESE STATIONS ARE NOT UNDER NWS QUALITY CONTROL. THEY ALSO MAY NOT
  REPORT WEATHER SUCH AS PRECIPITATION OR FOG.

INZ001>027-220000-
NORTHERN INDIANA

CITY           SKY/WX    TMP DP  RH WIND       PRES   REMARKS
GARY*          CLOUDY    52  41  66 N10       30.20R
VALPARAISO     CLOUDY    49  40  71 N5        30.18R
MICHIGAN CITY* CLOUDY    48  36  61 N5        30.19R
LAPORTE*       CLOUDY    50  41  70 N7        30.18R
KNOX*          CLOUDY    49  38  66 N8        30.17R
SOUTH BEND     CLOUDY    49  38  65 NE10      30.18R
ELKHART*       CLOUDY    48  36  61 N6        30.18R
GOSHEN         CLOUDY    48  38  68 N8        30.17R
MONTICELLO*    MOCLDY    50  41  70 N13G18    30.15S
LOGANSPORT*    CLOUDY    50  39  66 N10       30.16R
ROCHESTER*     CLOUDY    52  41  66 N6        30.17R
WARSAW*        CLOUDY    46  41  81 NE3       30.16R
ANGOLA*        CLOUDY    46  28  49 N6        30.16R
FORT WAYNE     CLOUDY    49  38  65 N9        30.16R
HUNTINGTON*    CLOUDY    49  40  70 N7        30.15R
PERU/GRISSOM   CLOUDY    52  45  76 N8        30.14R
MARION*        CLOUDY    51  41  67 N9        30.14S

$$
INZ028>050-220000-
CENTRAL INDIANA

CITY           SKY/WX    TMP DP  RH WIND       PRES   REMARKS
LAFAYETTE      CLEAR     50  40  68 N8        30.15S
KOKOMO*        CLOUDY    52  37  58 NE13      30.15R
MUNCIE*        CLOUDY    52  42  69 N7        30.13R
INDIANAPOLIS   MOCLDY    53  42  66 N8        30.12R

$$
MIZ043>046-050>051-056>058-064>065-071>073-077>080-220000-
SOUTHWEST LOWER MICHIGAN

CITY           SKY/WX    TMP DP  RH WIND       PRES   REMARKS
BATTLE CREEK   CLOUDY    47  35  63 N7        30.18R
BENTON HARBOR  MOCLDY    47  38  71 NE3       30.19R
COLDWATER*     CLOUDY    48  38  70 N9        30.17R
HILLSDALE*     CLOUDY    45  36  71 N7        30.16R
HOLLAND        CLEAR     49  37  63 CALM      30.19R
GRAND RAPIDS   PTCLDY    46  36  68 N5        30.19R
KALAMAZOO      MOCLDY    47  37  68 N8        30.19R
STURGIS*       CLOUDY    46  37  71 CALM      30.17R
THREE RIVERS*  CLOUDY    48  39  71 N3        30.18R

$$
OHZ001>008-015>018-024>025-220000-
NORTHWEST OHIO

CITY           SKY/WX    TMP DP  RH WIND       PRES   REMARKS
WAUSEON*       CLOUDY    46  37  71 N8G14     30.15R
DEFIANCE       CLOUDY    48  37  65 NE12      30.16R
FINDLAY        CLOUDY    47  38  71 N10       30.12R
TOLEDO EXPRESS CLOUDY    45  37  73 N10       30.14R
TOLEDO METCALF CLOUDY    47  37  68 N15       30.14R
LIMA           CLOUDY    47  38  71 N13G21    30.13R

$$
AND FOR LAKE MICHIGAN COASTAL AND OPEN LAKE BUOY OBSERVATIONS

STATION/POSITION TEMP    WIND        PRES    VSBY  WAVE
                 AIR SEA DIR/SP/G                  HT/PER
                 (F)     (DEG/KT/KT) (MB)    (MI)  (FT/S)
CALUMET HARBOR    50     360/ 12/ 17 1021.4S
MICHIGAN CITY     50      10/ 14/ 17   N/A
SAINT JOSEPH      49                 1022.4S
SOUTH LAKE BUOY   49 54  350/ 16/ 19 1022.8R         5/ 7

$$
&&



USA.gov is the U.S. government's official web portal to all federal, state and local government web resources and services.